Location: Le Domaine
(47.0333°N, 76.5361°W)
Time: 03:35:41
(UTC-05:00)

Transit 2A Rocket - Pass Details

Date: 18 November 2019
Orbit: 594 x 909 km, 66.7° (Epoch: 11 December)

Event Time Altitude Azimuth Distance (km) Brightness Sun altitude
Exits shadow 05:16:00 11° 349° (N) 1,855 6.8 -19.8°
Maximum altitude 05:19:17 24° 42° (NE) 1,267 6.5 -19.3°
Drops below altitude 10° 05:22:54 10° 97° (E) 1,989 8.4 -18.7°
Sets 05:25:35 0° 111° (ESE) 2,932 9.6 -18.2°
